TimePDT,TemperatureF,Dew PointF,Humidity,Sea Level PressureIn,VisibilityMPH,Wind Direction,Wind SpeedMPH,Gust SpeedMPH,PrecipitationIn,Events,Conditions,WindDirDegrees,DateUTC
12:54 AM,62.1,59.0,90,29.95,10.0,Calm,Calm,-,N/A,,Clear,0,2012-10-16 07:54:00
1:54 AM,63.0,59.0,87,29.95,10.0,Calm,Calm,-,N/A,,Clear,0,2012-10-16 08:54:00
2:54 AM,61.0,57.9,90,29.95,10.0,Calm,Calm,-,N/A,,Clear,0,2012-10-16 09:54:00
3:54 AM,57.9,55.9,93,29.94,10.0,Calm,Calm,-,N/A,,Clear,0,2012-10-16 10:54:00
5:54 AM,55.9,54.0,93,29.94,4.0,SW,8.1,-,N/A,,Clear,220,2012-10-16 12:54:00
6:54 AM,57.0,55.0,93,29.95,10.0,North,3.5,-,N/A,,Clear,360,2012-10-16 13:54:00
7:54 AM,55.9,55.0,97,29.95,10.0,Calm,Calm,-,N/A,,Clear,0,2012-10-16 14:54:00
8:54 AM,66.0,61.0,84,29.96,10.0,Calm,Calm,-,N/A,,Clear,0,2012-10-16 15:54:00
9:54 AM,72.0,61.0,68,29.96,10.0,SW,4.6,-,N/A,,Clear,220,2012-10-16 16:54:00
10:54 AM,75.0,62.1,64,29.95,10.0,Calm,Calm,-,N/A,,Clear,0,2012-10-16 17:54:00
11:54 AM,80.1,62.1,54,29.93,10.0,Variable,5.8,-,N/A,,Clear,0,2012-10-16 18:54:00
12:54 PM,81.0,62.1,52,29.91,10.0,SSW,12.7,-,N/A,,Clear,200,2012-10-16 19:54:00
1:54 PM,82.0,63.0,52,29.87,10.0,South,15.0,-,N/A,,Clear,190,2012-10-16 20:54:00
2:54 PM,86.0,62.1,44,29.85,10.0,West,13.8,-,N/A,,Clear,270,2012-10-16 21:54:00
3:54 PM,84.0,61.0,46,29.84,10.0,WSW,11.5,-,N/A,,Clear,250,2012-10-16 22:54:00
4:54 PM,81.0,59.0,47,29.83,10.0,West,13.8,-,N/A,,Clear,260,2012-10-16 23:54:00
5:54 PM,75.9,57.9,54,29.83,10.0,South,5.8,-,N/A,,Clear,190,2012-10-17 00:54:00
6:54 PM,71.1,57.9,63,29.83,10.0,South,10.4,-,N/A,,Clear,190,2012-10-17 01:54:00
7:54 PM,68.0,57.0,68,29.85,10.0,South,5.8,-,N/A,,Clear,190,2012-10-17 02:54:00
8:54 PM,64.0,55.9,75,29.86,10.0,SE,4.6,-,N/A,,Clear,130,2012-10-17 03:54:00
9:54 PM,63.0,54.0,72,29.87,10.0,SE,3.5,-,N/A,,Clear,130,2012-10-17 04:54:00
10:54 PM,60.1,53.1,78,29.87,10.0,Calm,Calm,-,N/A,,Clear,0,2012-10-17 05:54:00
11:54 PM,57.0,53.1,87,29.88,10.0,Calm,Calm,-,N/A,,Clear,0,2012-10-17 06:54:00